Powrót do katalogu

FENGYUN 1C DEB

LostSSO
NORAD 38170·DEBRIS·🇨🇳 China

Wystrzelony May 10, 1999 z Taiyuan Satellite Launch Center

Loading…

Następne Przeloty (najbliższe 24 godziny)

TLE

NieaktualneSource: Space-Track

Epoka: May 8, 2024, 00:54 UTC

1 38170U 99025ERT 24129.03782047  .00006682  00000-0  24134-2 0  9991
2 38170  98.7644 219.5597 0119572 270.7071  88.0412 14.29961127561339

Śledź FENGYUN 1C DEB w czasie rzeczywistym z AllMySat

Download on the App Store